Overview Statistics Trail Chart Weather Telemetry Raw packets
 

This is the latest recevied weather packets stored in our database for station/object WX5RP. If no packets are shown the sender has not sent any weather packets the latest 10 day(s).

<< 54 55 56 57 58 >>
Time Temp. Humidity Pressure Rain* Wind** Luminosity Snow
1777145716 9.44° C 28% 1009.5 hPa 0 mm - 642 W/m² -
1777145115 8.89° C 30% 1009.9 hPa 0 mm - 719 W/m² -
1777144515 8.89° C 28% 1009.9 hPa 0 mm - 685 W/m² -
1777143915 8.33° C 28% 1009.9 hPa 0 mm - 605 W/m² -
1777143315 8.33° C 27% 1010.3 hPa 0 mm - 556 W/m² -
1777142715 8.33° C 30% 1010 hPa 0 mm - 564 W/m² -
1777142117 7.78° C 31% 1010.7 hPa 0 mm - 539 W/m² -
1777141517 7.78° C 29% 1010.8 hPa 0 mm - 505 W/m² -
1777140917 7.78° C 30% 1011.1 hPa 0 mm - 582 W/m² -
1777140317 7.78° C 30% 1010.5 hPa 0 mm - 665 W/m² -
1777139717 7.78° C 30% 1010.7 hPa 0 mm - 663 W/m² -
1777139117 7.22° C 31% 1011.1 hPa 0 mm - 709 W/m² -
1777138517 6.67° C 31% 1010.8 hPa 0 mm - 639 W/m² -
1777137917 6.67° C 32% 1011.4 hPa 0 mm - 549 W/m² -
1777137317 6.67° C 35% 1011.1 hPa 0 mm - 572 W/m² -
1777136717 6.67° C 31% 1010.8 hPa 0 mm - 524 W/m² -
1777136116 6.11° C 32% 1010.9 hPa 0 mm - 509 W/m² -
1777135517 5.56° C 36% 1010.9 hPa 0 mm - 463 W/m² -
1777134916 5.56° C 36% 1011.2 hPa 0 mm - 417 W/m² -
1777134317 5° C 39% 1011.1 hPa 0 mm - 440 W/m² -
1777133716 4.44° C 38% 1010.8 hPa 0 mm - 341 W/m² -
1777133116 5° C 39% 1010.5 hPa 0 mm - 346 W/m² -
1777132516 4.44° C 40% 1010.5 hPa 0 mm - 350 W/m² -
1777131916 3.89° C 42% 1010.6 hPa 0 mm - 372 W/m² -
1777131316 3.89° C 44% 1011.2 hPa 0 mm - 381 W/m² -

* Rain latest hour (hover to see other rain measurements)
** Current wind speed in m/s (hover to see current wind gust speed)